This demonstration page uses our WeatherBlox Daily Observations layout. Learn more.

Left ArrowRight Arrow

Hourly Observations for May 16, 2018

Temp ( °F °C ) Dew Point ( °F °C ) Humidity (%) Winds ( mph kmh ) Pressure ( in mb ) Visibility ( mi km ) Precip ( " mm )
12:56 am 00:56 Clear 60 15.6 56 13.3 86 86 Calm 29.99 1016 10 16 0.00 0.00
1:56 am 01:56 Clear 61 16.1 55 12.8 81 81 SSE 3 6 29.99 1016 10 16 0.00 0.00
2:56 am 02:56 Clear 58 14.4 55 12.8 90 90 Calm 29.98 1015 9 14 0.00 0.00
3:56 am 03:56 Clear 58 14.4 54 12.2 87 87 Calm 29.98 1015 8 13 0.00 0.00
4:56 am 04:56 Clear with Mist and Fog 54 12.2 52 11.1 93 93 Calm 29.99 1016 5 8 0.00 0.00
5:56 am 05:56 Clear with Mist and Fog 56 13.3 54 12.2 93 93 SSW 3 6 29.99 1016 4 6 0.00 0.00
6:23 am 06:23 Partly Cloudy with Mist and Fog 54 12 52 11 94 94 Calm 30.03 1017 3 4 0.00 0.00
6:49 am 06:49 Partly Cloudy with Mist and Fog 54 12 52 11 94 94 Calm 30.03 1017 3 5 0.00 0.00
6:56 am 06:56 Sunny with Mist and Fog 54 12.2 53 11.7 97 97 Calm 30.00 1016 3 4 0.00 0.00
7:00 am 07:00 Partly Cloudy with Mist and Fog 54 12 54 12 100 100 Calm 30.03 1017 3 5 0.00 0.00
7:33 am 07:33 Partly Cloudy with Mist and Fog 57 14 55 13 94 94 Calm 30.03 1017 3 4 0.00 0.00
7:56 am 07:56 Sunny with Mist and Fog 58 14.4 56 13.3 93 93 E 6 9 30.01 1016 3 4 0.00 0.00
8:05 am 08:05 Sunny with Mist and Fog 59 15 55 13 88 88 ESE 5 7 30.03 1017 3 5 0.00 0.00
8:56 am 08:56 Hazy 64 17.8 58 14.4 81 81 S 3 6 30.01 1016 6 10 0.00 0.00
9:56 am 09:56 Sunny 69 20.6 60 15.6 73 73 SSE 8 13 30.02 1017 10 16 0.00 0.00
10:56 am 10:56 Sunny 73 22.8 60 15.6 64 64 SSE 9 15 30.01 1016 10 16 0.00 0.00
11:56 am 11:56 Sunny 76 24.4 59 15 56 56 SSE 7 11 30.00 1016 10 16 0.00 0.00
12:56 pm 12:56 Mostly Cloudy 78 25.6 57 13.9 48 48 Calm 29.98 1015 10 16 0.00 0.00
1:56 pm 13:56 Mostly Sunny 77 25 54 12.2 45 45 Calm 29.96 1015 10 16 0.00 0.00
2:56 pm 14:56 Mostly Sunny 80 26.7 56 13.3 44 44 VRB 6 9 29.95 1014 10 16 0.00 0.00
3:37 pm 15:37 Mostly Sunny 81 27 52 11 37 37 VRB 5 7 29.88 1012 10 16 0.00 0.00
3:56 pm 15:56 Partly Cloudy 81 27.2 54 12.2 39 39 E 8 13 29.93 1014 10 16 0.00 0.00
4:56 pm 16:56 Sunny 81 27.2 52 11.1 37 37 Calm 29.92 1013 10 16 0.00 0.00
5:56 pm 17:56 Sunny 81 27.2 54 12.2 39 39 ESE 10 17 29.91 1013 10 16 0.00 0.00
6:56 pm 18:56 Sunny 81 27.2 53 11.7 38 38 E 6 9 29.90 1013 10 16 0.00 0.00
7:04 pm 19:04 Mostly Sunny 81 27 52 11 37 37 E 8 13 29.80 1009 10 16 0.00 0.00
7:56 pm 19:56 Sunny 78 25.6 55 12.8 45 45 E 8 13 29.91 1013 10 16 0.00 0.00
8:56 pm 20:56 Clear 72 22.2 56 13.3 57 57 ESE 8 13 29.92 1013 10 16 0.00 0.00
9:56 pm 21:56 Clear 68 20 55 12.8 63 63 ESE 9 15 29.93 1013 10 16 0.00 0.00
10:56 pm 22:56 Clear 68 20 53 11.7 59 59 ESE 9 15 29.93 1014 10 16 0.00 0.00
11:56 pm 23:56 Clear 64 17.8 53 11.7 68 68 ESE 8 13 29.93 1014 10 16 0.00 0.00

Powered by AerisWeather